Regional Weather Roundup
Issued by NWS

Home | Current Version | Previous Version | Text Only | Print | Product List | Glossary On
Versions: 1 2 3 4 5 6 7 8 9 10 11 12 13 14 15 16 17 18 19 20 21 22 23 24 25 26 27 28 29 30 31 32 33 34 35 36 37 38 39 40 41 42 43 44 45 46 47 48 49 50
000
ASUS43 KIND 040709
RWRIN

WEATHER ROUNDUP FOR INDIANA
NATIONAL WEATHER SERVICE INDIANAPOLIS IN
300 AM EDT SAT JUL 04 2015

NOTE: "FAIR" INDICATES FEW OR NO CLOUDS BELOW 12,000 FEET WITH NO
SIGNIFICANT WEATHER AND/OR OBSTRUCTIONS TO VISIBILITY.

* - STATION DOES NOT REPORT WEATHER SUCH AS PRECIPITATION OR FOG.

+ - STATION NOT QUALITY CONTROLLED BY THE NATIONAL WEATHER SERVICE.
    USE DATA WITH CAUTION...ESPECIALLY DEWPOINT AND RELATIVE
    HUMIDITY OBSERVATIONS.

INZ001>003-010>013-019-020-040800-
NORTHWEST INDIANA

CITY           SKY/WX    TMP DP  RH WIND       PRES   REMARKS
GARY /AIRPORT/   N/A    N/A N/A N/A CALM      29.96S FOG
KNOX *+        CLEAR     55  55 100 CALM      29.95S
LA PORTE +     PTCLDY    56  56 100 CALM      29.96S FOG
MICHIGAN CITY+ CLEAR     54  54 100 CALM      29.96S FOG
MONTICELLO +   CLEAR     59  58  98 NW3       29.95S
RENSSELAER +   CLEAR     59  59 100 CALM      29.96S
VALPARAISO     CLEAR     56  54  93 CALM      29.96S

$$

LMZ046-743>745-040800-
SOUTHERN LAKE MICHIGAN

STATION/POSITION TIME  TEMP    WIND        PRES    WAVE
                       AIR SEA DIR/SP/G            HT
                 (UTC) (F)     (DEG/KT/KT) (MB)    (FT)
BURNS HARBOR     0700   62     210/  3/  5 1014.9F
MICHIGAN CITY    0700   59     190/  4/  5   N/A
5NW MICH CITY    0700   62 63  240/  4/  6   N/A     1

$$

INZ004-005-014>016-021>024-040800-
NORTH CENTRAL INDIANA

CITY           SKY/WX    TMP DP  RH WIND       PRES   REMARKS
GOSHEN         CLEAR     57  55  93 CALM      29.95F FOG
LOGANSPORT +   CLEAR     59  55  88 N3        29.96S
PERU/GRISSOM   CLEAR     61  59  94 N1        29.94S
ROCHESTER +    CLEAR     61  61 100 CALM      29.95F
SOUTH BEND     CLEAR     58  54  86 CALM      29.96S
WARSAW +         N/A     55  55 100 CALM      29.95F FOG

$$

INZ006>009-017-018-025>027-040800-
NORTHEAST INDIANA

CITY           SKY/WX    TMP DP  RH WIND       PRES   REMARKS
ANGOLA *+        N/A     57  46  67 CALM      29.95F
AUBURN +       CLEAR     55  54  94 CALM      29.96S FOG
FORT WAYNE     MOCLDY    59  57  93 CALM      29.95S
HUNTINGTON +   CLEAR     58  58  97 CALM      29.95R FOG

$$

INZ028-029-035-036-043>045-051>053-040800-
WEST CENTRAL INDIANA

CITY           SKY/WX    TMP DP  RH WIND       PRES   REMARKS
CRAWFORDSVL +  CLEAR     58  57  97 CALM      29.95S FOG
GREENCASTLE +  PTCLDY    64  59  82 N3        29.95S
LAFAYETTE      CLEAR     60  58  92 CALM      29.95S
TERRE HAUTE    MOCLDY    66  63  90 N3        29.94S

$$

INZ030>032-037>040-046>048-054>057-064-065-040800-
CENTRAL INDIANA

CITY           SKY/WX    TMP DP  RH WIND       PRES   REMARKS
CP ATTERBURY + CLOUDY    64  63  94 CALM      29.93S FOG
FRANKFORT +    CLEAR    N/A N/A N/A CALM      29.97R FOG
GREENWOOD *+   CLOUDY    68  63  83 CALM      29.95R
INDIANAPOLIS   CLOUDY    68  62  81 N5        29.92S
-EAGLE CREEK   PTCLDY    66  62  87 N5        29.94R
KOKOMO *+      CLEAR     61  57  88 CALM      29.95R
MARION +       CLEAR     59  58  97 CALM      29.95S FOG
MT COMFORT *+  CLEAR     66 N/A N/A N3        29.94S
SHELBYVILLE    CLOUDY    68  65  90 CALM      29.92S FOG
ZIONSVILLE +   CLEAR     62  59  89 CALM      29.95S FOG

$$

INZ033-034-041-042-049-050-058-059-040800-
EAST CENTRAL INDIANA

CITY           SKY/WX    TMP DP  RH WIND       PRES   REMARKS
MUNCIE         CLOUDY    64  61  90 CALM      29.95R

$$

INZ060-061-067>069-081>083-085>088-040800-
SOUTHWEST INDIANA

CITY           SKY/WX    TMP DP  RH WIND       PRES   REMARKS
EVANSVILLE     MOCLDY    68  67  96 CALM      29.91F FOG
HUNTINGBURG *+ CLEAR     66  63  88 CALM      29.92R
WASHINGTON +   CLEAR     63  59  87 CALM      29.92S FOG

$$

INZ062-063-066-070>080-084-089>092-040800-
SOUTH CENTRAL AND SOUTHEAST INDIANA

CITY           SKY/WX    TMP DP  RH WIND       PRES   REMARKS
BLOOMINGTON    CLEAR     63  62  97 CALM      29.93S FOG
MADISON *+     CLOUDY    68  63  83 CALM      29.93S VSB 1/4
NORTH VERNON + CLOUDY    68  68 100 CALM      29.93S
SEYMOUR +      PTCLDY    66  64  94 CALM      29.92S

$$




USA.gov is the U.S. government's official web portal to all federal, state and local government web resources and services.